Simultaneous Nadir Overpasses (SNOs) Predictions

Prediction of SNOs between GOES-17 and LANDSAT-8 Satellite Orbit:

Table of predicted SNOs for the next 14.0 days since TLE Epoch: 2/1/2025
Index Date Time (GOES-17) GOES-17 Lat,Lon LANDSAT-8 Lat,Lon Distance(km) Time Diff (sec)
1 02/01/2025 05:15:53 0.01,-104.66 -0.19,-105.54 99.38 80
2 02/03/2025 05:01:02 0.01,-104.68 0.44,-102.58 237.90 80
3 02/03/2025 17:22:18 -0.01,-104.67 0.62,-107.75 349.27 80
4 02/05/2025 17:10:06 -0.01,-104.68 0.02,-104.78 12.03 80
5 02/07/2025 17:00:34 -0.02,-104.69 -0.61,-101.83 325.19 80
6 02/08/2025 05:21:57 0.02,-104.71 -0.49,-107.02 263.45 80
7 02/10/2025 05:07:05 0.02,-104.71 0.18,-104.07 74.09 80
8 02/12/2025 04:54:53 0.02,-104.73 0.81,-101.10 412.34 80
9 02/12/2025 17:16:07 -0.02,-104.71 0.29,-106.26 175.55 80
10 02/14/2025 17:06:33 -0.02,-104.73 -0.32,-103.29 163.68 80
